Flag for Brazil Weather past 2 weeks in Campinas, São Paulo, Brazil

Now
66 °F

Clear.


Feels Like: 66 °F
Forecast: 62 / 80 °F
Wind: 18 mph from Southeast

Location: Campinas Aeroporto

Current Time: Sep 2, 2015 at 12:17:17 AM

Latest Report: Sep 1, 2015 at 11:00 PM


Visibility: 10 mi

Pressure: 30.18 "Hg (27.85 "Hg at 686m altitude)

Humidity: 78%

Dew point: 59 °F

Location of CampinasLocation

Historic Weather in Campinas — Graph

°F

Campinas temperature yesterday

Maximum temperature yesterday: 90 °F (at 2:00 PM)
Minimum temperature yesterday: 63 °F (at 4:00 AM)
Average temperature yesterday: 73 °F

Past Weeks' High & Low Weather Summary

 TemperatureHumidityPressure
High90 °F (Aug 31, 2:00 PM)100% (Aug 23, 7:00 AM)30.27 "Hg (Aug 23, 7:00 AM)
Low54 °F (Aug 29, 6:00 AM)15% (Aug 23, 4:00 PM)29.95 "Hg (Aug 19, 2:00 PM)
Average68 °F64%30.10 "Hg
* Reported Aug 17 11:00 PM — Sep 1 11:00 PM, Campinas, Weather by CustomWeather, © 2015

Note: Actual official high and low records may vary slightly from our data, if they occured in-between our weather recording intervals... More about our weather records

Advertising

Campinas weather history for previous 24 hours

 ConditionsComfort  
Time TempWeatherWind HumidityBarometerVisibility
11:00 PM
Tue, Sep 1
66 °FClear.18 mph78%30.18 "Hg10 mi
10:00 PM66 °FClear.20 mph78%30.18 "Hg10 mi
9:00 PM68 °FClear.17 mph73%30.18 "Hg10 mi
8:00 PM68 °FClear.18 mph73%30.18 "Hg10 mi
6:00 PM70 °FClear.16 mph64%30.12 "Hg10 mi
5:00 PM75 °FClear.21 mph57%30.09 "Hg10 mi
4:00 PM86 °FSunny.18 mph38%30.07 "Hg10 mi
3:00 PM90 °FPassing clouds.15 mph27%30.07 "HgN/A
2:00 PM90 °FPassing clouds.6 mph20%30.09 "HgN/A
1:00 PM88 °FSunny.5 mph22%30.12 "Hg10 mi
12:00 PM88 °FSunny.7 mph22%30.15 "Hg10 mi
11:00 AM82 °FSunny.5 mph35%30.18 "Hg10 mi
10:00 AM79 °FClear.2 mph45%30.18 "Hg5 mi
9:00 AM75 °FClear.2 mph50%30.18 "Hg5 mi
8:00 AM68 °FClear.5 mph69%30.15 "Hg5 mi
7:00 AM63 °FClear.7 mph77%30.12 "Hg6 mi
6:00 AM63 °FSunny.7 mph77%30.12 "Hg10 mi
5:00 AM63 °FClear.7 mph77%30.09 "Hg10 mi
4:00 AM63 °FClear.6 mph77%30.09 "Hg10 mi
3:00 AM66 °FClear.8 mph68%30.09 "Hg10 mi
2:00 AM66 °FClear.6 mph68%30.12 "Hg10 mi
1:00 AM68 °FClear.2 mph64%30.12 "Hg10 mi
12:00 AM70 °FClear.9 mph57%30.15 "Hg10 mi
Weather by CustomWeather, © 2015

See weather overviewHow to use our weather pages